Regional Weather Roundup
Issued by NWS

Home | Current Version | Previous Version | Graphics & Text | Print | Product List | Glossary On
Versions: 1 2 3 4 5 6 7 8 9 10 11 12 13 14 15 16 17 18 19 20 21 22 23 24 25 26 27 28 29 30 31 32 33 34 35 36 37 38 39 40 41 42 43 44 45 46 47 48 49 50
802
ASUS45 KBOI 031610
RWRID

IDAHO REGIONAL WEATHER ROUNDUP
NATIONAL WEATHER SERVICE BOISE ID
900 AM MST SAT DEC 03 2016

NOTE: "FAIR" INDICATES FEW OR NO CLOUDS BELOW 12000 FEET
WITH NO SIGNIFICANT WEATHER AND/OR OBSTRUCTIONS TO VISIBILITY

IDZ012-014-031700-
SOUTHWEST IDAHO


CITY           SKY/WX    TMP DP  RH WIND       PRES   REMARKS
BOISE          CLOUDY    34  26  72 CALM      30.26R
CALDWELL       MOCLDY    30  25  81 CALM      30.29R
MOUNTAIN HOME  CLOUDY    29  25  85 CALM      30.27R
$$

IDZ016-017-031700-
SOUTHCENTRAL IDAHO


CITY           SKY/WX    TMP DP  RH WIND       PRES   REMARKS
BURLEY         CLOUDY    33  20  58 SW14      30.22R WCI  23
JEROME         CLOUDY    31  21  66 S9        30.23S WCI  23
TWIN FALLS     CLOUDY    34  17  50 S12       30.24R WCI  25
$$

IDZ019>023-031700-
SOUTHEAST IDAHO


CITY           SKY/WX    TMP DP  RH WIND       PRES   REMARKS
IDAHO FALLS    PTSUNNY   27  19  72 SW15      30.19S WCI  15
POCATELLO      CLOUDY    31  18  58 SW14      30.22S WCI  21
REXBURG        CLOUDY    25  18  74 SW7       30.19R WCI  17
$$

IDZ006-010-011-018-031-032-031700-
CENTRAL IDAHO MOUNTAINS


CITY           SKY/WX    TMP DP  RH WIND       PRES   REMARKS
MCCALL         CLOUDY    26  21  81 CALM      30.17S
HAILEY         MOCLDY    18  16  93 W7        30.19R WCI   8
STANLEY          N/A     24  20  84 N3        30.16R
SALMON         CLOUDY    27  25  93 CALM      30.13R
CHALLIS        CLOUDY    24  19  81 CALM      30.12R
$$

IDZ002-004-006-007-026-031700-
NORTHERN IDAHO


CITY           SKY/WX    TMP DP  RH WIND       PRES   REMARKS
LEWISTON       PTCLDY    40  32  73 S9        30.19R WCI  34
LOWELL           N/A     33  31  92 CALM      30.24R
COEUR D`ALENE  CLOUDY    35  34  96 SW8       30.12R WCI  29
MULLAN PASS    SNOW      25  23  92 VRB6      29.97S VSB 1/2 WCI  18
$$




USA.gov is the U.S. government's official web portal to all federal, state and local government web resources and services.